Skip Page Navigation
NASA JPL Caltech
NASA Logo - Jet Propulsion Laboratory + View the NASA Portal
+ Center for Near-Earth Object Studies
JPL Home Earth Solar System Stars & Galaxies Technology
JPL Solar System Dynamics
BODIES ORBITS EPHEMERIDES TOOLS PHYSICAL DATA DISCOVERY FAQ SITE MAP
IMPORTANT: The SSD Announcement email list is now available. Major changes are coming in the near future, including possible hostname and/or URL changes. To be notified of such changes, subscribe to this email list.

Please visit this page for more details.


JPL Small-Body Database Browser
Search: [ help ]  
215288 (2001 RE3)
Classification: Main-belt Asteroid          SPK-ID: 2215288
Ephemeris | Orbit Diagram | Orbital Elements | Mission Design | Physical Parameters | Discovery Circumstances | Close-Approach Data ]

[ show orbit diagram ]
Orbital Elements at Epoch 2458600.5 (2019-Apr-27.0) TDB
Reference: JPL 15 (heliocentric ecliptic J2000)
 Element Value Uncertainty (1-sigma)   Units 
e .1067390066044504 4.9033e-08  
a 2.664862514673437 2.1229e-08 au
q 2.380417737119756 1.2838e-07 au
i 13.04838965824779 6.4545e-06 deg
node 199.1444342089822 1.8371e-05 deg
peri 128.5442296279244 3.1804e-05 deg
M 30.70216370016759 2.8485e-05 deg
tp 2458464.988197871998
(2018-Dec-12.48819787)
0.00012496 TDB
period 1588.95149027605
4.35
1.8987e-05
5.198e-08
d
yr
n .2265645000511984 2.7073e-09 deg/d
Q 2.949307292227117 2.3495e-08 au
  Orbit Determination Parameters
   # obs. used (total)      389  
   data-arc span      7138 days (19.54 yr)  
   first obs. used      2000-04-10  
   last obs. used      2019-10-26  
   planetary ephem.      DE431  
   SB-pert. ephem.      SB431-N16  
   condition code      0  
   norm. resid. RMS      .57589  
   source      ORB  
   producer      Otto Matic  
   solution date      2019-Nov-07 23:58:10  

Additional Information
 Earth MOID = 1.39361 au 
 Jupiter MOID = 2.4262 au 
 T_jup = 3.339 
[ show covariance matrix ]

Ephemeris | Orbit Diagram | Orbital Elements | Mission Design | Physical Parameters | Discovery Circumstances | Close-Approach Data ]

Physical Parameter Table
Parameter Symbol Value Units Sigma Reference Notes
absolute magnitude H 15.7   n/a MPO418154  

215288 (2001 RE3)          Discovered 2001-Sep-08 by LONEOS at Anderson Mesa
Reference: 20090607/Numbers.arcLast Updated: 2009-06-08

[ show close-approach data ]
Ephemeris | Orbit Diagram | Orbital Elements | Mission Design | Physical Parameters | Discovery Circumstances | Close-Approach Data ]
ABOUT SSD CREDITS/AWARDS PRIVACY/COPYRIGHT GLOSSARY LINKS
FirstGov
(server date/time)  
NASA Home Page
Site Manager:   Ryan S. Park
Webmaster  Alan B. Chamberlin